Breckenridge, TX

3:29 AM CDT on April 23, 2018 (GMT -0500)
Stephens County

Weather History for KBKD - October, 2013

Change the Weather History Date:

Tuesday, October 15, 2013

  Actual Average (KMWL) Record (KMWL)
Temperature  
Mean Temperature 63 °F -  
Max Temperature 75 °F 76 °F 98 °F (2015)
Min Temperature 51 °F 53 °F 42 °F (1997)
Degree Days  
Heating Degree Days 2    
Growing Degree Days 13 (Base 50)    
Moisture  
Dew Point 58 °F    
Average Humidity 88    
Maximum Humidity 97    
Minimum Humidity 76    
Precipitation  
Precipitation 0.02 in - - ()
Sea Level Pressure  
Sea Level Pressure 30.02 in    
Wind  
Wind Speed 10 mph (NNW)    
Max Wind Speed 15 mph    
Max Gust Speed 26 mph    
Visibility 10 miles    
Events Rain    
Averages and records for this station are not official NWS values.
T = Trace of Precipitation, MM = Missing Value Source: NWS Daily Summary

Daily Weather History Graph

Daily Weather History Graph

Search for Another Location

Airport or City:

Astronomy

Oct. 15, 2013 Rise Set
Actual Time 7:39 AM CDT 7:02 PM CDT
Civil Twilight 7:14 AM CDT 7:27 PM CDT
Nautical Twilight 6:46 AM CDT 7:55 PM CDT
Astronomical Twilight 6:17 AM CDT 8:24 PM CDT
Moon 4:59 PM CDT (10/15) 4:14 AM CDT (10/15)
Length of Visible Light 12h 12m
Length of Day
11h 22m
Waxing Gibbous, 88% of the Moon is Illuminated
Oct 15
Waxing Gibbous
Oct 18
Full
Oct 26
Last Quarter
Nov 3
New
Nov 9
First Quarter

Hourly Weather History & Observations

Time (CDT) Temp. Dew Point Humidity Pressure Visibility Wind Dir Wind Speed Gust Speed Precip Events Conditions
12:15 AM 74.8 °F 68.4 °F 80% 29.94 in 10.0 mi South 10.4 mph - N/A   Clear
12:35 AM 75.2 °F 68.4 °F 79% 29.93 in 10.0 mi South 12.7 mph 17.3 mph N/A   Clear
12:55 AM 74.8 °F 68.4 °F 80% 29.93 in 10.0 mi South 11.5 mph 17.3 mph N/A   Clear
1:15 AM 75.0 °F 68.2 °F 79% 29.93 in 10.0 mi South 11.5 mph 18.4 mph N/A   Clear
1:35 AM 75.2 °F 68.0 °F 78% 29.93 in 10.0 mi SSW 12.7 mph - N/A   Clear
1:55 AM 75.6 °F 67.6 °F 76% 29.93 in 10.0 mi SSW 11.5 mph 17.3 mph N/A   Clear
2:15 AM 75.4 °F 67.3 °F 76% 29.92 in 10.0 mi SSW 12.7 mph 18.4 mph N/A   Clear
2:35 AM 74.8 °F 67.3 °F 77% 29.91 in 10.0 mi SSW 11.5 mph - N/A   Clear
2:55 AM 75.0 °F 67.3 °F 77% 29.91 in 10.0 mi SSW 10.4 mph - N/A   Clear
3:15 AM 75.2 °F 67.3 °F 76% 29.91 in 10.0 mi SSW 12.7 mph 19.6 mph N/A   Clear
3:35 AM 75.2 °F 67.1 °F 76% 29.91 in 10.0 mi SSW 9.2 mph - N/A   Clear
3:55 AM 75.0 °F 67.1 °F 76% 29.91 in 10.0 mi SSW 8.1 mph - N/A   Clear
4:15 AM 74.7 °F 67.1 °F 77% 29.90 in 10.0 mi SSW 8.1 mph - N/A   Scattered Clouds
4:35 AM 74.5 °F 67.3 °F 78% 29.90 in 10.0 mi SSW 9.2 mph - N/A   Scattered Clouds
4:55 AM 74.3 °F 67.3 °F 79% 29.90 in 10.0 mi SSW 9.2 mph - N/A   Scattered Clouds
5:15 AM 73.9 °F 67.5 °F 80% 29.91 in 10.0 mi SW 6.9 mph - N/A   Scattered Clouds
5:35 AM 73.4 °F 67.8 °F 83% 29.92 in 10.0 mi WSW 5.8 mph - 0.01 in   Light Drizzle
5:55 AM 73.0 °F 68.2 °F 85% 29.93 in 10.0 mi SSW 6.9 mph - 0.01 in Rain Light Rain
6:15 AM 72.7 °F 69.6 °F 90% 29.92 in 10.0 mi SSW 10.4 mph - N/A Rain Rain
6:35 AM 72.5 °F 69.8 °F 91% 29.92 in 10.0 mi SSW 12.7 mph 17.3 mph N/A   Drizzle
6:55 AM 72.5 °F 69.8 °F 91% 29.92 in 10.0 mi SSW 10.4 mph - N/A   Scattered Clouds
7:15 AM 72.5 °F 69.8 °F 91% 29.93 in 10.0 mi SSW 6.9 mph - N/A Rain Light Rain
7:35 AM 72.5 °F 70.0 °F 92% 29.94 in 10.0 mi WNW 5.8 mph - N/A   Scattered Clouds
7:55 AM 72.3 °F 70.3 °F 93% 29.96 in 10.0 mi North - - N/A   Light Drizzle
8:15 AM 68.9 °F 64.8 °F 87% 29.97 in 10.0 mi North - - N/A   Overcast
8:35 AM 65.8 °F 61.0 °F 84% 29.98 in 10.0 mi NNW 12.7 mph 19.6 mph N/A   Mostly Cloudy
8:55 AM 64.4 °F 59.0 °F 83% 30.00 in 10.0 mi NNW 11.5 mph 23.0 mph N/A Rain Light Rain
9:15 AM 64.0 °F 58.1 °F 81% 30.01 in 10.0 mi North - - N/A   Overcast
9:35 AM 62.6 °F 56.7 °F 81% 30.03 in 10.0 mi North 13.8 mph 26.5 mph N/A   Overcast
9:55 AM 61.5 °F 55.9 °F 82% 30.05 in 10.0 mi NNW 9.2 mph 18.4 mph N/A   Light Drizzle
10:15 AM 60.1 °F 54.9 °F 83% 30.07 in 10.0 mi NNW 11.5 mph 19.6 mph N/A Rain Light Rain
10:35 AM 59.0 °F 54.5 °F 85% 30.08 in 10.0 mi NNW 11.5 mph - N/A   Drizzle
10:55 AM 57.9 °F 54.7 °F 89% 30.08 in 10.0 mi NNW 12.7 mph - N/A Rain Light Rain
11:15 AM 56.8 °F 55.0 °F 94% 30.08 in 10.0 mi North 12.7 mph 19.6 mph N/A Rain Light Rain
11:35 AM 56.3 °F 54.5 °F 94% 30.07 in 10.0 mi North 12.7 mph 16.1 mph N/A Rain Light Rain
11:55 AM 55.8 °F 52.7 °F 89% 30.06 in 10.0 mi North 15.0 mph 25.3 mph N/A Rain Light Rain
12:15 PM 55.2 °F 52.3 °F 90% 30.07 in 10.0 mi North 13.8 mph 23.0 mph N/A Rain Light Rain
12:35 PM 54.5 °F 52.2 °F 92% 30.06 in 10.0 mi NNE 11.5 mph 19.6 mph N/A Rain Rain
12:55 PM 53.8 °F 51.6 °F 92% 30.07 in 10.0 mi North 11.5 mph 19.6 mph N/A Rain Light Rain
1:15 PM 54.1 °F 51.3 °F 90% 30.08 in 10.0 mi North 10.4 mph - N/A   Drizzle
1:35 PM 54.5 °F 52.2 °F 92% 30.08 in 10.0 mi North 10.4 mph - N/A Rain Rain
1:55 PM 53.6 °F 51.4 °F 92% 30.07 in 10.0 mi NNW 10.4 mph 16.1 mph N/A Rain Rain
2:15 PM 53.6 °F 51.3 °F 92% 30.06 in 10.0 mi North 10.4 mph 18.4 mph N/A Rain Rain
2:35 PM 53.8 °F 51.8 °F 93% 30.05 in 10.0 mi North 8.1 mph - N/A   Light Drizzle
2:55 PM 53.4 °F 51.3 °F 92% 30.07 in 10.0 mi NNW 10.4 mph - N/A Rain Light Rain
3:15 PM 52.7 °F 50.9 °F 94% 30.06 in 10.0 mi NNW 9.2 mph 17.3 mph N/A Rain Light Rain
3:35 PM 52.9 °F 51.4 °F 95% 30.07 in 10.0 mi North 10.4 mph - N/A Rain Light Rain
3:55 PM 52.2 °F 50.4 °F 94% 30.07 in 10.0 mi NNE 9.2 mph 17.3 mph N/A Rain Rain
4:15 PM 52.0 °F 50.9 °F 96% 30.06 in 7.0 mi North 6.9 mph - N/A Rain Rain
4:35 PM 52.5 °F 51.6 °F 97% 30.06 in 7.0 mi North 9.2 mph - N/A Rain Rain
4:55 PM 52.3 °F 51.3 °F 96% 30.06 in 10.0 mi NNW 10.4 mph - 0.01 in Rain Light Rain
5:15 PM 52.7 °F 51.3 °F 95% 30.06 in 10.0 mi North 8.1 mph - N/A Rain Light Rain
5:35 PM 52.7 °F 50.2 °F 91% 30.08 in 10.0 mi North 6.9 mph - N/A Rain Rain
5:55 PM 52.7 °F 50.9 °F 94% 30.07 in 10.0 mi North 5.8 mph - N/A Rain Rain
6:15 PM 52.0 °F 49.3 °F 90% 30.07 in 10.0 mi North 10.4 mph 20.7 mph N/A   Drizzle
6:35 PM 51.8 °F 49.1 °F 90% 30.07 in 10.0 mi North 6.9 mph 20.7 mph N/A Rain Light Rain
6:55 PM 51.8 °F 49.8 °F 93% 30.07 in 10.0 mi NNE 9.2 mph - N/A Rain Light Rain
7:15 PM 51.8 °F 50.0 °F 94% 30.09 in 10.0 mi North 3.5 mph - N/A Rain Light Rain
7:55 PM 51.1 °F 49.3 °F 94% 30.09 in 10.0 mi North 6.9 mph - N/A Rain Light Rain
8:15 PM 51.4 °F 50.0 °F 95% 30.09 in 10.0 mi NNE 5.8 mph - N/A Rain Rain
8:35 PM 51.3 °F 50.0 °F 95% 30.10 in 10.0 mi NNE 8.1 mph 17.3 mph N/A Rain Light Rain
8:55 PM 51.1 °F 49.3 °F 94% 30.11 in 10.0 mi North 8.1 mph - N/A   Drizzle
9:15 PM 51.3 °F 49.5 °F 94% 30.12 in 10.0 mi North 5.8 mph - N/A   Light Drizzle
9:35 PM 51.4 °F 49.5 °F 93% 30.12 in 10.0 mi North 9.2 mph - N/A Rain Light Rain
9:55 PM 51.4 °F 49.8 °F 94% 30.12 in 10.0 mi NNE 4.6 mph - N/A Rain Light Rain
10:15 PM 51.6 °F 50.0 °F 94% 30.12 in 10.0 mi North 4.6 mph - N/A Rain Light Rain
10:35 PM 51.8 °F 50.2 °F 94% 30.13 in 10.0 mi North 3.5 mph - N/A   Drizzle
10:55 PM 52.0 °F 50.5 °F 95% 30.13 in 10.0 mi NNW 4.6 mph - N/A   Drizzle
11:15 PM 52.0 °F 50.9 °F 96% 30.12 in 10.0 mi North 3.5 mph - N/A Rain Rain
11:35 PM 52.0 °F 50.9 °F 96% 30.11 in 10.0 mi North 6.9 mph - N/A Rain Light Rain
11:55 PM 52.0 °F 50.5 °F 95% 30.11 in 10.0 mi NNE 5.8 mph - N/A Rain Light Rain